Regional Weather Roundup
Issued by NWS

Home | Current Version | Previous Version | Graphics & Text | Print | Product List | Glossary On
Versions: 1 2 3 4 5 6 7 8 9 10 11 12 13 14 15 16 17 18 19 20 21 22 23 24 25 26 27 28 29 30 31 32 33 34 35 36 37 38 39 40 41 42 43 44 45 46 47 48 49 50
000
ASUS45 KCYS 300210
RWRWY

WYOMING REGIONAL WEATHER ROUNDUP
NATIONAL WEATHER SERVICE CHEYENNE WY
800 PM MDT SAT AUG 29 2015

NOTE:  "FAIR" INDICATES FEW OR NO CLOUDS BELOW 12,000 FEET
WITH NO SIGNIFICANT WEATHER AND/OR OBSTRUCTIONS TO VISIBILITY.

WYZ001-300300-
YELLOWSTONE NATIONAL PARK

CITY           SKY/WX    TMP DP  RH WIND       PRES   REMARKS
LK YELLOWSTONE   N/A     67  40  37 CALM      30.20S
W YELLOWSTONE  NOT AVBL

$$
WYZ002>013-054>058-071-098>099-300300-
NORTHERN WYOMING

CITY           SKY/WX    TMP DP  RH WIND       PRES   REMARKS
JACKSON        CLEAR     72  43  35 S5        30.08F
CODY           FAIR      79  43  27 CALM      29.95F
GREYBULL       FAIR      89  34  14 SE9       29.82F
WORLAND        FAIR      85  37  18 S9        29.86F
SHERIDAN       FAIR      74  46  36 W6        29.86S
BUFFALO        FAIR      80  34  19 W6        29.96F
GILLETTE       FAIR      74  42  31 S12       29.91F
HULETT         FAIR      79  39  24 SE12      29.94F
NEWCASTLE      FAIR      82  32  16 SE13G18   29.98S

$$
WYZ014>020-022>026-101>103-300300-
CENTRAL WYOMING

CITY           SKY/WX    TMP DP  RH WIND       PRES   REMARKS
BIG PINEY      FAIR      69  40  34 W7        30.16F
PINEDALE       FAIR      73  36  25 SW5       30.17F
DUBOIS         FAIR      70  36  28 W9        30.15S
LANDER         FAIR      81  37  20 SW10      30.00S
RIVERTON       FAIR      83  32  16 S7        30.00S
CASPER         FAIR      77  30  17 S9        30.03S
DOUGLAS        FAIR      78  29  16 E7        30.02F

$$
WYZ021-027>030-104>119-300300-
SOUTHERN WYOMING

CITY           SKY/WX    TMP DP  RH WIND       PRES   REMARKS
EVANSTON       FAIR      74  35  24 SW9       30.16F
KEMMERER       FAIR     N/A N/A N/A W5        30.18F
FORT BRIDGER   CLEAR     77  34  20 SW8       30.19F
ROCK SPRINGS   FAIR      77  30  17 S13       30.14S
DIXON          FAIR      75  28  17 CALM      30.19F
RAWLINS        FAIR      73  27  18 S7        30.19S
SARATOGA       FAIR      68  39  34 S9        30.23S
LARAMIE        FAIR      69  41  36 SE10      30.24S
CHEYENNE       FAIR      75  38  26 S7        30.18S
TORRINGTON     FAIR      78  41  26 E12       30.01R
PINE BLUFFS    FAIR      70  36  28 SE6       30.12S

$$


USA.gov is the U.S. government's official web portal to all federal, state and local government web resources and services.